sat.trackr.live / text

‹ back to catalog

BEIDOU-3 IGSO-3 (C40)

NORAD 44709 · 2019-073A

PAYLOAD ACTIVE UNKNOWN

§ Identity

Operator
Country
PRC
Launch date
2019-11-04
Launch site
XICLF
Launch vehicle
Mass (kg)
RCS (m²)

Purposes: comms, nav

External: N2YO · Heavens-Above · Gunter

§ Orbital elements

Epoch: 2026-09-14T11:09:29.225376Z

Period
1,436.22 min
Inclination
54.6510°
Eccentricity
0.0046838
Mean motion
1.00263123 rev/d
Perigee alt
35,591.5 km
Apogee alt
35,986.5 km
Semi-major
42,167.2 km
B*
0.0000e+0
RAAN
279.9243°
Arg perigee
198.0895°
Mean anomaly
161.7790°
Rev number
2,535

§ Raw data

BEIDOU-3 IGSO-3 (C40)1 44709U 19073A   26257.46492159 -.00000170  00000+0  00000+0 0  99932 44709  54.6510 279.9243 0046838 198.0895 161.7790  1.00263123 25356

JSON: /api/v1/satellites/44709 · /tle

For live sub-satellite position, see the globe view (requires WebGL).

§ Visibility from observer

Set your observer location to see the next 7 days of passes ≥ 10°. The values pass through the URL so the page stays shareable.

No JS? Fill the form by hand. The geolocation button needs JavaScript.